SCP
0 0 0 0 0 0 0 0 0 0 0 0 0 0 0 0 0 0 0 0 0 0 -0 0 0 0 0 -0 0 0 -0 0 0 0 -0 -0 -0 -0 0 0 0 0 0 0 0 0 1 0 0 0 0 0 0 0
0 0 0 0 0 0 0 0 0 0 0 0 0 0 0 0 0 0 0 0 0 0 0 0 0 0 0 0 -0 -0 -0 -0 0 0 0 0 -0 -0 -0 0 0 0 0 0 0 1 0 0 0 0 0 0 0 0
0 0 0 0 0 0 0 0 0 0 0 0 0 0 0 0 0 0 0 0 0 0 0 0 0 0 0 0 0 -0 -0 -0 0 0 0 0 0 -0 -0 -0 0 0 0 0 0 0 0 0 0 0 0 0 0 0
0 0 0 0 0 0 0 0 0 0 0 0 0 0 0 0 0 -0 0 0 0 0 0 0 -0 0 0 0 0 0 0 0 0 0 0 -0 0 -0 -0 -0 -0 0 0 0 0 0 0 0 0 0 0 0 0 0
0 0 0 0 0 0 0 0 0 0 0 0 0 0 0 0 0 0 0 0 0 0 0 0 -0 0 -0 -0 -0 -0 -0 0 0 0 0 0 -0 -0 -0 -0 -0 -0 0 0 0 0 0 0 0 0 0 0 0 0
0 0 0 0 0 0 0 0 0 0 0 0 0 0 0 0 0 0 0 0 0 0 0 0 -0 0 0 0 0 0 0 -0 0 -0 0 0 0 -0 -0 -0 -0 -0 -0 -0 0 0 0 0 0 0 0 0 0 0
0 0 0 0 0 0 0 0 0 0 0 0 0 0 0 0 0 0 0 0 0 0 0 0 0 0 0 0 0 0 0 0 0 0 0 -0 -0 0 -0 -0 -0 -0 -0 -0 -0 0 0 0 0 0 0 0 0 0
0 0 0 0 0 0 0 0 0 0 0 0 0 0 0 0 0 0 0 0 0 0 0 0 0 0 0 0 0 0 0 0 0 0 0 0 -0 -0 -0 0 0 -0 -0 -0 -0 -0 0 0 0 0 0 0 0 0
0 0 0 0 0 0 0 0 0 -0 0 0 -0 0 0 0 0 0 0 0 0 0 0 0 0 0 0 0 0 0 0 0 -0 0 0 0 -0 -0 0 -0 -0 0 0 0 -0 -0 -0 0 0 0 0 0 0 0
0 0 0 0 0 0 0 0 0 0 -0 0 0 0 0 0 0 0 0 0 0 0 0 0 0 0 0 0 0 0 0 0 0 -0 -0 -0 -0 0 0 0 0 0 -0 0 0 -0 -0 0 0 0 0 0 0 0
0 0 0 0 0 0 0 0 0 0 0 0 0 0 0 0 0 0 0 0 0 0 0 0 0 0 0 0 0 0 0 0 0 0 -0 -0 0 -0 -0 0 0 0 0 -0 -0 0 -0 -0 0 0 0 0 0 0
0 0 0 0 0 0 0 0 0 0 0 0 0 0 0 0 0 0 0 0 0 0 0 0 0 0 0 0 0 0 0 0 0 0 0 0 0 0 0 -0 0 0 0 0 0 -0 -0 -0 -0 0 0 0 0 0
0 0 0 0 0 0 0 0 0 0 0 0 0 0 0 0 0 0 0 0 0 0 0 0 0 0 0 0 0 0 0 0 0 0 0 0 0 -0 0 -0 0 0 0 0 0 0 0 -0 -0 -0 -0 -0 0 0
0 0 0 0 0 0 0 0 0 0 0 0 0 0 0 0 0 -0 0 0 0 0 0 0 0 0 0 0 0 0 0 0 0 0 0 0 0 0 -0 -0 -0 0 0 0 0 0 0 0 0 -0 -0 -0 0 0
0 0 0 0 -0 -0 0 0 0 0 0 0 0 0 0 0 0 0 0 0 0 0 0 0 0 0 0 0 0 0 0 0 0 0 0 0 0 0 0 -0 -0 -0 0 0 0 0 0 0 0 0 0 -0 -0 -0
-0 0 0 0 0 0 0 0 0 0 0 0 0 0 0 0 0 -0 -0 0 -0 -0 0 0 0 0 0 0 0 0 0 0 0 0 0 0 0 0 0 -0 0 -0 -0 -0 0 0 0 0 0 0 0 0 0 0
-0 0 0 0 0 -0 0 0 0 0 0 0 0 0 0 0 0 0 -0 -0 0 0 -0 0 -0 -0 0 -0 -0 0 0 0 0 0 0 0 0 0 0 -0 0 -0 0 -0 -0 0 0 0 0 -0 0 -0 -0 0
0 0 0 0 0 0 0 0 0 0 0 0 0 0 0 0 0 0 0 -0 0 0 -0 0 -0 -0 -0 -0 -0 0 0 0 0 0 0 0 0 0 0 0 0 -0 -0 0 -0 -0 0 0 0 0 0 0 0 1
0 0 0 0 0 0 0 0 0 0 0 0 0 0 0 -0 -0 0 0 -0 0 0 -0 0 0 0 0 0 0 0 -0 -0 0 0 0 0 0 0 0 0 0 -0 0 -0 -0 -0 0 -0 0 0 0 0 0 0
0 0 0 0 0 0 0 0 0 0 0 0 0 -0 0 0 0 0 0 -0 0 0 0 0 0 -0 0 0 0 0 0 0 0 -0 -0 0 -0 -0 -0 -0 -0 -0 0 -0 0 0 -0 -0 0 0 0 0 0 0
0 0 0 0 0 0 0 0 0 0 0 0 0 0 0 0 -0 -0 0 -0 0 -0 0 0 0 0 0 -0 0 0 0 -0 -0 -0 -0 0 0 -0 -0 -0 -0 -0 -0 -0 -0 0 -0 0 0 0 0 0 0 0
0 0 0 0 0 0 0 0 0 0 0 0 0 0 0 0 0 0 0 0 0 0 0 0 0 0 0 -0 -0 -0 0 0 0 0 0 0 0 0 0 -0 -0 -0 -0 -0 0 -0 0 0 -0 0 0 0 0 0
0 0 0 0 0 0 0 0 0 0 0 0 0 0 0 0 0 0 0 0 0 0 0 0 0 0 0 0 0 0 0 0 0 -0 0 0 0 0 0 0 0 -0 0 0 -0 -0 -0 0 0 0 0 0 0 0
0 0 0 0 0 0 0 0 0 0 0 0 0 0 0 0 0 0 0 0 0 0 0 0 0 0 0 0 0 0 0 0 0 0 0 0 -0 0 0 0 0 0 0 0 0 0 0 -0 -0 0 0 0 0 -0
0 0 0 0 0 0 0 0 0 0 0 0 0 0 0 0 0 0 0 0 0 0 0 0 0 0 0 0 0 0 0 0 -0 0 0 0 -0 -0 -0 0 0 0 0 0 0 -0 -0 -0 0 0 -0 -0 0 0
0 0 0 0 0 0 0 0 0 0 0 0 0 0 0 0 0 0 0 0 0 0 0 0 0 0 0 0 0 0 0 0 0 0 0 0 0 0 0 0 0 0 0 0 0 0 0 0 0 0 -0 -0 -0 -0
0 0 0 0 0 0 0 0 0 0 0 0 0 0 0 0 0 0 0 0 0 0 0 0 0 0 0 0 0 0 0 0 0 0 0 0 0 0 0 0 0 0 0 0 0 0 0 0 0 0 0 0 0 0
0 0 0 0 0 0 0 0 0 0 0 0 0 0 0 0 0 0 0 0 0 0 0 0 0 0 0 0 0 0 0 0 0 0 0 0 0 0 0 0 0 0 0 0 0 0 0 0 0 0 0 0 0 0
0 0 0 0 0 0 0 0 0 0 0 0 0 0 0 0 0 0 0 0 0 0 0 0 0 0 0 0 0 0 0 0 0 0 0 0 0 0 0 0 0 0 0 0 0 0 0 0 0 0 0 0 0 0
0 0 0 0 0 0 0 0 0 0 0 0 -0 -0 0 0 0 0 0 0 0 0 0 0 0 0 0 0 0 0 0 0 0 0 0 0 0 0 0 0 0 0 0 0 0 0 0 0 0 0 0 0 0 0
0 0 0 0 0 0 0 0 0 0 -0 -0 -0 0 0 0 0 0 0 0 0 0 0 0 0 0 0 0 0 0 0 0 0 0 0 0 0 0 0 0 0 0 0 0 0 0 0 0 0 0 0 0 0 0
0 0 0 0 0 0 0 0 0 0 0 0 0 0 0 0 0 0 0 0 0 0 0 0 0 0 0 0 0 0 0 0 0 0 0 0 0 0 0 0 0 0 0 0 0 0 0 0 0 0 0 0 0 0
0 0 0 0 0 0 0 0 0 0 0 0 0 0 0 0 0 0 0 0 0 0 0 0 0 0 0 0 0 0 0 0 0 0 0 0 0 0 0 0 0 0 0 0 0 0 0 0 0 0 0 0 0 0
Wind_Speed_500mb
57 56 58 62 62 62 63 65 65 61 60 59 52 42 34 28 28 33 33 19 32 11 58 15 35 26 28 17 7 18 23 5 10 6 7 7 5 8 8 14 25 12 11 3 3 11 6 10 26 5 15 14 20 32
57 58 61 64 65 63 63 65 65 64 65 62 53 43 36 32 26 28 35 33 32 28 52 54 40 24 38 34 31 5 3 2 8 8 12 6 3 5 2 7 20 4 14 9 9 4 23 68 59 57 39 31 21 7
58 60 63 66 67 65 64 64 64 69 70 65 53 43 38 31 28 29 38 33 42 21 44 19 21 21 11 17 22 6 5 10 11 12 4 5 4 1 4 4 7 19 20 7 18 25 47 44 83 99 84 32 9 4
61 63 66 67 67 67 66 65 68 73 76 64 54 45 38 34 25 25 30 18 30 23 9 16 31 24 20 14 23 24 19 21 30 33 7 6 6 6 5 3 4 4 14 18 12 30 48 41 83 92 84 76 55 5
66 67 68 69 68 66 67 68 74 77 77 66 55 42 32 27 22 23 20 20 9 11 8 27 46 17 5 13 23 31 31 26 25 13 7 8 6 1 2 5 2 10 9 4 8 39 10 44 79 92 80 75 63 61
69 69 69 70 70 68 66 70 77 79 72 63 44 34 23 15 12 13 5 2 8 14 12 8 27 13 16 14 20 30 31 35 29 9 12 12 12 6 3 8 5 17 28 14 17 45 40 57 67 78 83 77 68 61
70 71 70 72 72 68 62 72 79 73 68 53 39 30 20 14 8 3 5 11 24 19 7 9 9 10 23 19 19 22 31 34 36 20 10 11 24 15 5 12 15 33 18 14 32 44 44 44 68 86 73 70 66 53
69 71 71 72 72 62 61 74 78 68 61 40 22 20 15 15 10 9 20 20 30 6 7 5 8 14 10 9 10 13 12 13 14 22 14 9 19 8 11 14 24 30 33 22 20 26 35 46 57 71 64 66 63 49
70 69 70 70 67 58 65 74 73 66 57 30 26 22 13 8 6 16 33 18 6 7 8 6 6 7 20 10 10 9 7 4 10 5 7 8 7 9 10 10 24 33 37 36 29 24 26 40 51 60 64 63 42 46
70 67 67 68 63 57 66 74 72 65 48 33 24 13 4 15 30 23 9 2 5 7 10 6 7 7 8 4 5 10 7 6 4 5 19 11 17 43 52 52 59 56 54 44 30 23 22 32 44 48 49 53 35 44
69 67 64 66 59 53 65 71 70 61 49 37 20 10 32 21 11 6 7 3 5 5 9 12 22 20 24 5 2 8 5 7 5 5 8 6 2 16 61 67 67 31 46 55 48 42 27 47 31 43 55 49 52 46
68 67 63 63 47 56 65 66 62 55 44 36 29 22 21 11 5 7 7 6 3 6 14 13 35 22 9 8 5 3 3 5 6 18 5 4 10 42 56 59 58 49 48 51 55 53 41 29 33 35 34 50 59 64
67 66 62 58 42 60 66 63 51 42 38 15 9 8 11 11 10 9 10 5 9 11 21 45 21 8 3 10 4 3 3 6 17 4 5 3 27 56 54 44 46 38 36 14 41 51 54 46 53 51 48 44 65 75
66 65 62 50 45 63 63 57 37 31 19 7 10 11 3 4 5 9 10 12 20 19 42 32 16 2 5 2 3 5 4 3 6 8 7 10 49 53 48 41 40 43 46 35 26 28 30 37 55 50 54 46 57 67
66 64 50 32 58 59 51 45 22 18 8 6 5 5 6 17 24 21 27 28 31 46 34 15 5 12 4 6 5 6 9 7 6 5 6 43 63 45 26 37 42 41 39 40 34 32 30 28 29 34 37 52 55 63
65 63 32 60 60 53 47 38 9 11 6 6 9 6 19 24 12 23 34 26 40 39 31 14 5 7 7 4 9 7 13 7 7 6 51 55 46 48 49 45 33 46 43 23 23 27 33 34 45 53 53 42 44 59
61 52 60 60 62 51 34 16 6 6 7 7 10 20 24 36 4 18 34 29 38 34 3 5 6 4 4 5 6 1 5 7 23 34 35 39 46 29 44 44 40 38 45 43 34 20 26 36 40 42 52 70 69 58
60 61 57 54 55 51 21 7 6 7 9 16 16 31 27 18 20 23 20 36 27 23 22 3 2 5 3 4 6 7 25 37 45 44 35 34 31 36 31 35 50 41 50 51 50 45 20 7 18 14 12 26 37 51
58 60 55 31 34 34 9 7 8 8 13 23 26 31 26 25 25 24 18 30 28 15 11 5 4 3 3 11 16 20 23 35 43 45 15 32 16 30 40 45 47 47 44 49 56 61 57 45 42 22 15 29 17 26
52 45 24 17 30 11 11 11 13 13 10 13 26 34 34 28 24 17 19 27 27 7 5 1 3 17 24 13 16 22 18 19 35 31 42 17 25 36 41 53 46 49 57 50 50 50 58 53 41 35 33 38 33 45
48 29 37 27 35 25 14 12 14 14 14 14 24 29 23 27 18 23 4 21 10 6 5 17 19 10 15 26 15 44 34 30 28 20 26 38 22 40 33 37 55 56 58 47 64 62 59 44 37 43 44 44 37 37
33 20 32 18 11 13 18 21 16 13 17 30 38 40 31 16 22 28 27 17 14 14 15 16 23 17 23 29 16 17 31 50 20 24 36 30 42 38 45 44 40 42 54 53 53 57 60 64 45 35 35 40 36 44
11 10 15 11 12 11 15 17 15 19 7 7 12 5 5 7 14 34 9 12 17 20 16 21 23 12 15 24 24 8 23 39 34 21 32 33 23 36 40 37 49 46 53 56 41 41 49 46 56 56 42 33 32 30
7 8 9 12 17 10 10 9 9 7 7 5 2 6 6 7 27 23 12 18 14 16 19 20 21 12 7 16 19 21 14 20 23 14 29 23 26 12 33 36 32 41 47 49 48 46 51 44 36 52 54 50 33 47
6 15 12 14 14 13 9 7 8 5 7 8 4 6 5 7 2 6 12 26 17 23 15 13 7 14 5 6 13 8 15 16 6 19 23 26 15 17 15 16 28 24 42 48 44 44 47 45 52 43 44 43 58 52
13 14 16 13 9 11 12 9 10 11 11 10 10 8 4 4 7 9 6 20 16 19 10 8 21 11 6 3 5 7 16 19 20 18 18 19 14 20 21 23 20 26 25 37 33 31 31 36 41 43 41 36 36 39
12 14 22 23 13 12 11 20 28 11 8 10 5 4 2 6 9 9 11 3 17 15 9 0 4 5 10 13 8 7 10 13 17 12 14 11 8 14 19 15 16 15 24 18 22 27 26 25 25 27 31 30 29 24
24 14 16 17 18 26 18 17 8 7 9 14 9 11 11 11 8 7 7 6 5 12 5 8 15 19 19 17 8 11 12 15 15 8 11 12 9 11 15 11 18 15 17 24 23 11 12 11 14 17 18 21 22 20
18 21 21 13 17 10 13 14 16 18 23 23 12 12 19 26 29 27 12 13 19 14 15 19 7 7 9 25 10 6 8 8 11 20 18 24 9 12 10 18 15 14 13 10 14 15 11 6 6 11 12 12 16 17
19 33 21 24 15 15 29 27 26 47 57 58 53 48 39 48 43 25 17 9 11 17 19 14 6 8 8 5 4 2 5 5 7 12 16 12 21 10 9 6 8 10 4 6 7 6 10 8 4 2 6 7 8 10
14 26 25 23 18 41 47 46 45 51 47 38 40 36 31 21 21 29 37 28 31 24 15 15 7 6 5 8 4 2 10 4 6 10 8 19 10 3 5 3 7 10 15 21 17 16 11 2 4 7 9 10 12 11
25 23 22 21 19 39 37 31 25 23 29 36 36 35 37 27 13 11 17 2 12 13 8 7 18 20 18 15 7 8 13 14 18 10 5 7 13 12 6 5 4 8 12 14 15 14 6 1 6 9 12 14 15 18
27 33 36 27 21 19 27 33 20 32 42 37 34 36 25 20 16 8 12 18 21 24 24 18 7 4 11 15 15 12 13 12 10 12 16 17 14 8 10 11 9 13 10 5 11 15 2 6 11 14 17 18 19 20
Wind_Direction_500mb
349 351 350 346 345 344 343 342 342 344 345 344 341 337 331 330 333 334 334 325 327 251 293 276 315 306 291 316 313 324 331 345 309 240 159 147 213 207 305 320 328 333 306 152 96 84 79 349 295 240 199 109 110 165
349 350 351 347 345 343 342 341 341 341 342 340 335 329 330 323 316 318 321 329 332 285 277 312 314 294 283 271 261 275 240 186 312 343 18 5 6 160 133 257 333 15 356 320 352 37 2 14 2 345 170 129 126 144
349 348 350 349 347 344 343 342 343 342 340 338 335 329 322 318 316 303 309 329 330 300 312 306 301 315 279 226 216 241 264 358 316 306 265 307 49 346 201 206 15 323 354 357 321 351 1 20 350 353 3 15 92 187
348 346 346 348 347 345 343 341 344 343 340 336 335 329 322 315 308 310 307 332 320 308 280 294 333 310 296 220 214 237 273 295 306 299 264 218 194 109 70 259 343 299 318 310 288 6 350 348 343 344 343 359 13 103
348 346 344 345 345 344 341 341 344 344 341 338 337 329 320 314 309 315 319 326 318 336 302 293 324 17 301 296 260 257 262 269 301 317 309 277 266 358 11 54 22 219 235 353 338 323 302 309 325 336 341 342 359 4
348 346 346 345 344 344 340 341 344 345 343 342 342 343 339 329 327 8 344 78 354 334 311 307 326 329 344 302 256 253 255 270 264 258 290 285 345 135 226 222 180 172 221 193 304 332 328 321 318 336 334 335 342 357
346 346 346 345 345 344 343 342 344 346 345 343 343 351 345 332 315 170 250 299 314 328 276 294 292 296 320 335 313 288 290 251 242 255 223 253 283 237 218 264 263 274 261 207 260 275 303 329 325 326 321 327 335 356
343 344 345 346 346 347 347 344 344 347 348 346 340 354 8 3 353 334 314 313 323 303 272 276 272 312 327 337 326 316 296 296 255 235 257 260 274 236 228 231 240 266 280 276 264 274 269 292 305 306 319 332 337 349
342 343 344 347 347 348 347 346 345 348 349 349 340 322 293 315 317 308 313 313 350 217 295 261 282 307 339 331 313 309 296 281 281 251 228 245 229 237 291 314 276 253 246 253 237 232 263 275 284 306 315 312 316 336
340 341 342 344 344 345 347 347 346 350 355 1 351 338 307 330 319 309 313 256 227 217 227 253 264 263 278 290 287 321 317 301 308 286 312 217 244 249 258 269 270 279 289 296 281 210 245 254 276 286 301 304 307 310
337 339 340 341 342 341 345 347 344 347 358 3 352 315 309 320 335 308 294 262 311 276 213 252 299 312 296 216 199 29 335 323 296 6 332 298 65 349 344 338 343 321 275 268 273 273 251 248 273 284 283 283 286 306
334 338 339 339 340 340 345 345 344 343 341 325 312 318 337 335 341 352 315 25 6 280 312 320 318 329 19 38 61 37 341 310 282 341 262 251 2 343 337 333 321 326 324 247 252 262 243 248 265 269 286 272 286 291
330 335 338 335 331 339 342 344 341 334 335 333 329 331 345 345 20 1 336 304 308 289 291 307 322 19 41 56 43 9 333 257 330 270 286 310 317 326 328 332 333 323 317 305 254 259 269 225 225 240 257 263 274 286
326 332 334 326 327 334 338 335 335 338 334 320 343 323 358 2 25 258 262 268 285 291 297 325 334 143 30 78 59 320 322 296 310 325 326 300 319 327 336 337 341 332 321 316 308 287 284 263 217 220 236 241 251 280
324 330 332 325 323 327 333 334 331 330 309 301 316 326 306 281 291 305 297 327 341 337 330 358 19 354 36 52 29 325 334 344 340 285 269 306 317 326 336 14 12 353 339 314 303 297 282 279 258 240 241 236 248 252
322 329 321 328 329 335 337 332 329 293 260 266 230 229 278 281 355 332 331 337 349 347 345 43 6 5 22 30 6 16 321 351 295 268 300 310 329 325 339 329 318 4 11 347 312 294 288 279 272 261 260 262 263 265
316 319 329 331 329 336 339 341 337 242 247 241 253 279 247 270 291 302 325 339 345 335 329 52 27 289 313 18 2 352 281 232 266 316 340 328 342 341 356 350 356 354 0 11 12 351 280 282 274 265 261 249 253 284
309 318 327 331 323 336 342 263 270 254 249 252 250 271 292 322 293 320 317 317 336 345 353 25 38 353 11 305 275 232 250 300 311 309 320 349 350 10 1 6 14 8 7 12 10 15 28 166 205 225 244 217 235 232
308 316 326 337 335 333 293 259 233 263 257 274 294 286 297 307 329 288 303 314 324 343 341 6 346 340 220 231 254 311 346 346 330 337 308 18 40 18 27 26 21 15 22 21 25 23 34 53 63 104 142 175 159 159
303 309 311 327 325 298 274 257 237 233 254 254 287 296 289 286 282 289 308 297 322 349 47 348 221 271 313 347 321 333 327 345 330 2 11 46 46 42 46 34 27 17 30 33 25 30 44 49 59 66 77 99 110 105
315 330 302 302 295 259 261 268 247 246 252 242 256 283 288 298 300 305 277 309 303 264 205 245 295 33 358 19 344 335 336 1 19 356 15 349 44 39 44 34 30 37 38 37 29 30 46 43 44 60 72 73 83 96
313 335 319 337 244 239 245 236 238 251 260 271 275 272 276 272 274 273 273 239 209 248 273 299 309 1 356 3 10 27 4 356 16 16 13 27 28 34 44 37 34 27 32 35 36 34 34 46 49 55 70 74 62 62
293 308 303 250 254 244 259 237 244 235 245 271 268 313 267 260 272 291 218 241 252 241 272 285 320 312 4 15 4 11 12 353 5 31 7 16 33 35 34 38 38 36 33 32 30 42 34 31 40 48 55 72 88 98
271 246 242 237 223 248 248 251 245 255 272 280 267 243 252 265 277 279 270 264 219 195 214 256 292 303 43 30 10 20 21 356 6 26 27 359 23 41 27 25 32 46 38 33 33 41 47 56 36 39 48 59 101 85
209 230 216 246 247 236 215 226 208 236 246 211 232 253 248 267 301 288 279 271 255 169 174 205 313 306 310 58 21 10 349 3 356 8 13 21 34 39 50 36 25 35 38 36 31 41 39 53 61 62 55 57 66 77
224 231 205 220 228 221 201 211 208 222 233 209 223 230 241 245 217 243 246 268 210 157 157 181 217 232 290 325 12 358 353 351 2 18 22 4 25 27 31 39 17 17 32 45 38 42 46 46 56 59 69 72 71 74
233 240 226 227 248 232 266 255 243 234 213 214 185 153 150 247 236 238 250 145 157 149 153 136 34 320 311 299 292 291 304 324 328 317 320 318 43 58 26 11 32 37 24 43 48 48 57 48 46 39 40 37 43 59
230 249 220 218 231 243 267 267 266 254 226 217 197 191 191 208 240 210 136 173 204 222 209 289 290 288 288 298 247 262 296 302 325 356 305 314 285 105 76 58 36 32 31 15 23 40 54 71 62 36 28 36 47 47
225 218 219 238 227 223 233 224 231 238 243 243 223 220 240 241 246 265 251 231 230 236 267 284 295 315 302 298 224 166 238 337 12 39 31 39 68 141 106 58 50 46 22 11 23 17 23 11 43 47 40 58 67 60
234 207 206 211 210 225 216 223 250 241 236 240 253 266 264 237 244 264 274 254 273 278 277 301 319 294 289 39 60 321 339 280 66 94 88 48 11 15 30 51 25 5 359 86 72 314 314 337 323 103 122 118 109 103
236 209 213 221 241 250 253 250 251 250 260 274 275 278 278 249 218 229 238 245 255 252 244 224 167 101 53 33 31 296 159 100 10 297 279 234 234 286 328 43 354 307 276 270 287 288 281 247 152 136 130 123 122 124
210 219 235 247 242 249 254 249 249 267 272 264 269 268 263 279 329 33 358 319 335 31 25 52 122 109 103 112 112 151 187 210 210 223 287 258 247 252 187 116 232 253 254 257 282 316 291 134 126 129 121 115 114 114
234 240 253 263 267 224 232 239 235 240 245 243 239 254 260 232 204 170 83 79 110 123 123 120 104 148 172 185 196 222 220 228 249 285 296 293 288 271 205 179 195 218 233 271 326 320 38 97 104 113 117 118 116 110
Wind_Speed_850mb
57 56 58 62 62 62 63 65 65 61 60 59 52 42 34 28 28 33 33 19 32 11 58 15 35 26 28 17 7 18 23 5 10 6 7 7 5 8 8 14 25 12 11 3 3 11 6 10 26 5 15 14 20 32
57 58 61 64 65 63 63 65 65 64 65 62 53 43 36 32 26 28 35 33 32 28 52 54 40 24 38 34 31 5 3 2 8 8 12 6 3 5 2 7 20 4 14 9 9 4 23 68 59 57 39 31 21 7
58 60 63 66 67 65 64 64 64 69 70 65 53 43 38 31 28 29 38 33 42 21 44 19 21 21 11 17 22 6 5 10 11 12 4 5 4 1 4 4 7 19 20 7 18 25 47 44 83 99 84 32 9 4
61 63 66 67 67 67 66 65 68 73 76 64 54 45 38 34 25 25 30 18 30 23 9 16 31 24 20 14 23 24 19 21 30 33 7 6 6 6 5 3 4 4 14 18 12 30 48 41 83 92 84 76 55 5
66 67 68 69 68 66 67 68 74 77 77 66 55 42 32 27 22 23 20 20 9 11 8 27 46 17 5 13 23 31 31 26 25 13 7 8 6 1 2 5 2 10 9 4 8 39 10 44 79 92 80 75 63 61
69 69 69 70 70 68 66 70 77 79 72 63 44 34 23 15 12 13 5 2 8 14 12 8 27 13 16 14 20 30 31 35 29 9 12 12 12 6 3 8 5 17 28 14 17 45 40 57 67 78 83 77 68 61
70 71 70 72 72 68 62 72 79 73 68 53 39 30 20 14 8 3 5 11 24 19 7 9 9 10 23 19 19 22 31 34 36 20 10 11 24 15 5 12 15 33 18 14 32 44 44 44 68 86 73 70 66 53
69 71 71 72 72 62 61 74 78 68 61 40 22 20 15 15 10 9 20 20 30 6 7 5 8 14 10 9 10 13 12 13 14 22 14 9 19 8 11 14 24 30 33 22 20 26 35 46 57 71 64 66 63 49
70 69 70 70 67 58 65 74 73 66 57 30 26 22 13 8 6 16 33 18 6 7 8 6 6 7 20 10 10 9 7 4 10 5 7 8 7 9 10 10 24 33 37 36 29 24 26 40 51 60 64 63 42 46
70 67 67 68 63 57 66 74 72 65 48 33 24 13 4 15 30 23 9 2 5 7 10 6 7 7 8 4 5 10 7 6 4 5 19 11 17 43 52 52 59 56 54 44 30 23 22 32 44 48 49 53 35 44
69 67 64 66 59 53 65 71 70 61 49 37 20 10 32 21 11 6 7 3 5 5 9 12 22 20 24 5 2 8 5 7 5 5 8 6 2 16 61 67 67 31 46 55 48 42 27 47 31 43 55 49 52 46
68 67 63 63 47 56 65 66 62 55 44 36 29 22 21 11 5 7 7 6 3 6 14 13 35 22 9 8 5 3 3 5 6 18 5 4 10 42 56 59 58 49 48 51 55 53 41 29 33 35 34 50 59 64
67 66 62 58 42 60 66 63 51 42 38 15 9 8 11 11 10 9 10 5 9 11 21 45 21 8 3 10 4 3 3 6 17 4 5 3 27 56 54 44 46 38 36 14 41 51 54 46 53 51 48 44 65 75
66 65 62 50 45 63 63 57 37 31 19 7 10 11 3 4 5 9 10 12 20 19 42 32 16 2 5 2 3 5 4 3 6 8 7 10 49 53 48 41 40 43 46 35 26 28 30 37 55 50 54 46 57 67
66 64 50 32 58 59 51 45 22 18 8 6 5 5 6 17 24 21 27 28 31 46 34 15 5 12 4 6 5 6 9 7 6 5 6 43 63 45 26 37 42 41 39 40 34 32 30 28 29 34 37 52 55 63
65 63 32 60 60 53 47 38 9 11 6 6 9 6 19 24 12 23 34 26 40 39 31 14 5 7 7 4 9 7 13 7 7 6 51 55 46 48 49 45 33 46 43 23 23 27 33 34 45 53 53 42 44 59
61 52 60 60 62 51 34 16 6 6 7 7 10 20 24 36 4 18 34 29 38 34 3 5 6 4 4 5 6 1 5 7 23 34 35 39 46 29 44 44 40 38 45 43 34 20 26 36 40 42 52 70 69 58
60 61 57 54 55 51 21 7 6 7 9 16 16 31 27 18 20 23 20 36 27 23 22 3 2 5 3 4 6 7 25 37 45 44 35 34 31 36 31 35 50 41 50 51 50 45 20 7 18 14 12 26 37 51
58 60 55 31 34 34 9 7 8 8 13 23 26 31 26 25 25 24 18 30 28 15 11 5 4 3 3 11 16 20 23 35 43 45 15 32 16 30 40 45 47 47 44 49 56 61 57 45 42 22 15 29 17 26
52 45 24 17 30 11 11 11 13 13 10 13 26 34 34 28 24 17 19 27 27 7 5 1 3 17 24 13 16 22 18 19 35 31 42 17 25 36 41 53 46 49 57 50 50 50 58 53 41 35 33 38 33 45
48 29 37 27 35 25 14 12 14 14 14 14 24 29 23 27 18 23 4 21 10 6 5 17 19 10 15 26 15 44 34 30 28 20 26 38 22 40 33 37 55 56 58 47 64 62 59 44 37 43 44 44 37 37
33 20 32 18 11 13 18 21 16 13 17 30 38 40 31 16 22 28 27 17 14 14 15 16 23 17 23 29 16 17 31 50 20 24 36 30 42 38 45 44 40 42 54 53 53 57 60 64 45 35 35 40 36 44
11 10 15 11 12 11 15 17 15 19 7 7 12 5 5 7 14 34 9 12 17 20 16 21 23 12 15 24 24 8 23 39 34 21 32 33 23 36 40 37 49 46 53 56 41 41 49 46 56 56 42 33 32 30
7 8 9 12 17 10 10 9 9 7 7 5 2 6 6 7 27 23 12 18 14 16 19 20 21 12 7 16 19 21 14 20 23 14 29 23 26 12 33 36 32 41 47 49 48 46 51 44 36 52 54 50 33 47
6 15 12 14 14 13 9 7 8 5 7 8 4 6 5 7 2 6 12 26 17 23 15 13 7 14 5 6 13 8 15 16 6 19 23 26 15 17 15 16 28 24 42 48 44 44 47 45 52 43 44 43 58 52
13 14 16 13 9 11 12 9 10 11 11 10 10 8 4 4 7 9 6 20 16 19 10 8 21 11 6 3 5 7 16 19 20 18 18 19 14 20 21 23 20 26 25 37 33 31 31 36 41 43 41 36 36 39
12 14 22 23 13 12 11 20 28 11 8 10 5 4 2 6 9 9 11 3 17 15 9 0 4 5 10 13 8 7 10 13 17 12 14 11 8 14 19 15 16 15 24 18 22 27 26 25 25 27 31 30 29 24
24 14 16 17 18 26 18 17 8 7 9 14 9 11 11 11 8 7 7 6 5 12 5 8 15 19 19 17 8 11 12 15 15 8 11 12 9 11 15 11 18 15 17 24 23 11 12 11 14 17 18 21 22 20
18 21 21 13 17 10 13 14 16 18 23 23 12 12 19 26 29 27 12 13 19 14 15 19 7 7 9 25 10 6 8 8 11 20 18 24 9 12 10 18 15 14 13 10 14 15 11 6 6 11 12 12 16 17
19 33 21 24 15 15 29 27 26 47 57 58 53 48 39 48 43 25 17 9 11 17 19 14 6 8 8 5 4 2 5 5 7 12 16 12 21 10 9 6 8 10 4 6 7 6 10 8 4 2 6 7 8 10
14 26 25 23 18 41 47 46 45 51 47 38 40 36 31 21 21 29 37 28 31 24 15 15 7 6 5 8 4 2 10 4 6 10 8 19 10 3 5 3 7 10 15 21 17 16 11 2 4 7 9 10 12 11
25 23 22 21 19 39 37 31 25 23 29 36 36 35 37 27 13 11 17 2 12 13 8 7 18 20 18 15 7 8 13 14 18 10 5 7 13 12 6 5 4 8 12 14 15 14 6 1 6 9 12 14 15 18
27 33 36 27 21 19 27 33 20 32 42 37 34 36 25 20 16 8 12 18 21 24 24 18 7 4 11 15 15 12 13 12 10 12 16 17 14 8 10 11 9 13 10 5 11 15 2 6 11 14 17 18 19 20
Wind_Direction_850mb
349 351 350 346 345 344 343 342 342 344 345 344 341 337 331 330 333 334 334 325 327 251 293 276 315 306 291 316 313 324 331 345 309 240 159 147 213 207 305 320 328 333 306 152 96 84 79 349 295 240 199 109 110 165
349 350 351 347 345 343 342 341 341 341 342 340 335 329 330 323 316 318 321 329 332 285 277 312 314 294 283 271 261 275 240 186 312 343 18 5 6 160 133 257 333 15 356 320 352 37 2 14 2 345 170 129 126 144
349 348 350 349 347 344 343 342 343 342 340 338 335 329 322 318 316 303 309 329 330 300 312 306 301 315 279 226 216 241 264 358 316 306 265 307 49 346 201 206 15 323 354 357 321 351 1 20 350 353 3 15 92 187
348 346 346 348 347 345 343 341 344 343 340 336 335 329 322 315 308 310 307 332 320 308 280 294 333 310 296 220 214 237 273 295 306 299 264 218 194 109 70 259 343 299 318 310 288 6 350 348 343 344 343 359 13 103
348 346 344 345 345 344 341 341 344 344 341 338 337 329 320 314 309 315 319 326 318 336 302 293 324 17 301 296 260 257 262 269 301 317 309 277 266 358 11 54 22 219 235 353 338 323 302 309 325 336 341 342 359 4
348 346 346 345 344 344 340 341 344 345 343 342 342 343 339 329 327 8 344 78 354 334 311 307 326 329 344 302 256 253 255 270 264 258 290 285 345 135 226 222 180 172 221 193 304 332 328 321 318 336 334 335 342 357
346 346 346 345 345 344 343 342 344 346 345 343 343 351 345 332 315 170 250 299 314 328 276 294 292 296 320 335 313 288 290 251 242 255 223 253 283 237 218 264 263 274 261 207 260 275 303 329 325 326 321 327 335 356
343 344 345 346 346 347 347 344 344 347 348 346 340 354 8 3 353 334 314 313 323 303 272 276 272 312 327 337 326 316 296 296 255 235 257 260 274 236 228 231 240 266 280 276 264 274 269 292 305 306 319 332 337 349
342 343 344 347 347 348 347 346 345 348 349 349 340 322 293 315 317 308 313 313 350 217 295 261 282 307 339 331 313 309 296 281 281 251 228 245 229 237 291 314 276 253 246 253 237 232 263 275 284 306 315 312 316 336
340 341 342 344 344 345 347 347 346 350 355 1 351 338 307 330 319 309 313 256 227 217 227 253 264 263 278 290 287 321 317 301 308 286 312 217 244 249 258 269 270 279 289 296 281 210 245 254 276 286 301 304 307 310
337 339 340 341 342 341 345 347 344 347 358 3 352 315 309 320 335 308 294 262 311 276 213 252 299 312 296 216 199 29 335 323 296 6 332 298 65 349 344 338 343 321 275 268 273 273 251 248 273 284 283 283 286 306
334 338 339 339 340 340 345 345 344 343 341 325 312 318 337 335 341 352 315 25 6 280 312 320 318 329 19 38 61 37 341 310 282 341 262 251 2 343 337 333 321 326 324 247 252 262 243 248 265 269 286 272 286 291
330 335 338 335 331 339 342 344 341 334 335 333 329 331 345 345 20 1 336 304 308 289 291 307 322 19 41 56 43 9 333 257 330 270 286 310 317 326 328 332 333 323 317 305 254 259 269 225 225 240 257 263 274 286
326 332 334 326 327 334 338 335 335 338 334 320 343 323 358 2 25 258 262 268 285 291 297 325 334 143 30 78 59 320 322 296 310 325 326 300 319 327 336 337 341 332 321 316 308 287 284 263 217 220 236 241 251 280
324 330 332 325 323 327 333 334 331 330 309 301 316 326 306 281 291 305 297 327 341 337 330 358 19 354 36 52 29 325 334 344 340 285 269 306 317 326 336 14 12 353 339 314 303 297 282 279 258 240 241 236 248 252
322 329 321 328 329 335 337 332 329 293 260 266 230 229 278 281 355 332 331 337 349 347 345 43 6 5 22 30 6 16 321 351 295 268 300 310 329 325 339 329 318 4 11 347 312 294 288 279 272 261 260 262 263 265
316 319 329 331 329 336 339 341 337 242 247 241 253 279 247 270 291 302 325 339 345 335 329 52 27 289 313 18 2 352 281 232 266 316 340 328 342 341 356 350 356 354 0 11 12 351 280 282 274 265 261 249 253 284
309 318 327 331 323 336 342 263 270 254 249 252 250 271 292 322 293 320 317 317 336 345 353 25 38 353 11 305 275 232 250 300 311 309 320 349 350 10 1 6 14 8 7 12 10 15 28 166 205 225 244 217 235 232
308 316 326 337 335 333 293 259 233 263 257 274 294 286 297 307 329 288 303 314 324 343 341 6 346 340 220 231 254 311 346 346 330 337 308 18 40 18 27 26 21 15 22 21 25 23 34 53 63 104 142 175 159 159
303 309 311 327 325 298 274 257 237 233 254 254 287 296 289 286 282 289 308 297 322 349 47 348 221 271 313 347 321 333 327 345 330 2 11 46 46 42 46 34 27 17 30 33 25 30 44 49 59 66 77 99 110 105
315 330 302 302 295 259 261 268 247 246 252 242 256 283 288 298 300 305 277 309 303 264 205 245 295 33 358 19 344 335 336 1 19 356 15 349 44 39 44 34 30 37 38 37 29 30 46 43 44 60 72 73 83 96
313 335 319 337 244 239 245 236 238 251 260 271 275 272 276 272 274 273 273 239 209 248 273 299 309 1 356 3 10 27 4 356 16 16 13 27 28 34 44 37 34 27 32 35 36 34 34 46 49 55 70 74 62 62
293 308 303 250 254 244 259 237 244 235 245 271 268 313 267 260 272 291 218 241 252 241 272 285 320 312 4 15 4 11 12 353 5 31 7 16 33 35 34 38 38 36 33 32 30 42 34 31 40 48 55 72 88 98
271 246 242 237 223 248 248 251 245 255 272 280 267 243 252 265 277 279 270 264 219 195 214 256 292 303 43 30 10 20 21 356 6 26 27 359 23 41 27 25 32 46 38 33 33 41 47 56 36 39 48 59 101 85
209 230 216 246 247 236 215 226 208 236 246 211 232 253 248 267 301 288 279 271 255 169 174 205 313 306 310 58 21 10 349 3 356 8 13 21 34 39 50 36 25 35 38 36 31 41 39 53 61 62 55 57 66 77
224 231 205 220 228 221 201 211 208 222 233 209 223 230 241 245 217 243 246 268 210 157 157 181 217 232 290 325 12 358 353 351 2 18 22 4 25 27 31 39 17 17 32 45 38 42 46 46 56 59 69 72 71 74
233 240 226 227 248 232 266 255 243 234 213 214 185 153 150 247 236 238 250 145 157 149 153 136 34 320 311 299 292 291 304 324 328 317 320 318 43 58 26 11 32 37 24 43 48 48 57 48 46 39 40 37 43 59
230 249 220 218 231 243 267 267 266 254 226 217 197 191 191 208 240 210 136 173 204 222 209 289 290 288 288 298 247 262 296 302 325 356 305 314 285 105 76 58 36 32 31 15 23 40 54 71 62 36 28 36 47 47
225 218 219 238 227 223 233 224 231 238 243 243 223 220 240 241 246 265 251 231 230 236 267 284 295 315 302 298 224 166 238 337 12 39 31 39 68 141 106 58 50 46 22 11 23 17 23 11 43 47 40 58 67 60
234 207 206 211 210 225 216 223 250 241 236 240 253 266 264 237 244 264 274 254 273 278 277 301 319 294 289 39 60 321 339 280 66 94 88 48 11 15 30 51 25 5 359 86 72 314 314 337 323 103 122 118 109 103
236 209 213 221 241 250 253 250 251 250 260 274 275 278 278 249 218 229 238 245 255 252 244 224 167 101 53 33 31 296 159 100 10 297 279 234 234 286 328 43 354 307 276 270 287 288 281 247 152 136 130 123 122 124
210 219 235 247 242 249 254 249 249 267 272 264 269 268 263 279 329 33 358 319 335 31 25 52 122 109 103 112 112 151 187 210 210 223 287 258 247 252 187 116 232 253 254 257 282 316 291 134 126 129 121 115 114 114
234 240 253 263 267 224 232 239 235 240 245 243 239 254 260 232 204 170 83 79 110 123 123 120 104 148 172 185 196 222 220 228 249 285 296 293 288 271 205 179 195 218 233 271 326 320 38 97 104 113 117 118 116 110